Theta_e
319 321 319 315 314 314 317 321 323 323 322 322 319 316 317 319 320 322 321 320 320 321 322 322 322 322 321 321 322 323 323 325 325 325 324 325 326 326 326 326 326 326 325 325 325 324 324 325 325 325 325 325 325 324 324 325 325 325 325 325 325 324 324
317 316 315 315 318 319 321 323 323 323 323 323 320 318 318 319 321 323 323 321 321 321 321 320 319 320 321 322 323 323 324 325 325 325 325 325 325 325 325 325 325 325 325 326 325 324 324 325 325 325 325 325 325 324 324 325 325 325 325 324 323 323 323
316 315 315 316 319 322 323 323 323 323 323 322 320 318 320 320 320 323 322 321 321 320 319 317 316 319 322 323 322 324 324 324 324 324 324 325 325 325 325 325 324 325 325 325 325 325 324 324 325 325 324 324 324 323 323 324 323 323 323 322 322 322 322
316 318 317 317 319 321 322 322 324 323 322 321 316 315 321 321 320 322 322 321 319 315 314 314 315 318 321 322 323 324 324 323 323 324 324 324 323 324 324 324 324 324 324 324 325 325 324 324 324 324 324 323 322 321 320 320 320 320 319 318 318 318 319
315 318 317 318 319 321 322 322 321 320 319 317 310 313 321 322 320 321 320 319 316 312 312 313 314 316 318 320 322 324 323 323 322 322 323 322 322 323 323 323 323 324 324 324 324 324 324 324 323 323 322 321 320 319 319 318 318 318 318 317 316 316 316
316 317 318 320 318 318 320 318 317 316 314 311 308 313 321 321 320 320 319 316 312 310 310 310 311 314 316 319 322 323 323 322 321 320 321 321 321 322 322 323 323 323 323 323 324 324 324 323 322 321 321 320 319 319 318 318 317 318 318 319 319 318 317
320 316 316 317 313 313 316 317 317 316 313 311 309 311 318 321 319 318 315 312 310 309 307 307 308 309 312 316 320 321 321 321 320 319 319 320 320 321 321 322 322 322 323 323 324 324 323 322 321 320 320 319 319 319 319 317 316 316 316 317 319 320 320
323 318 314 312 311 314 318 319 318 317 314 312 308 307 311 316 316 314 312 310 309 308 306 306 306 306 307 310 315 318 317 317 318 318 318 319 319 320 320 321 322 322 322 322 323 323 322 321 320 319 319 319 319 320 319 317 316 314 313 314 316 318 319
324 317 311 310 314 317 319 319 317 315 313 309 307 306 307 309 311 310 310 309 308 307 307 306 306 306 306 306 309 311 311 310 311 313 315 316 317 318 320 321 322 322 321 321 321 321 321 320 320 319 318 317 318 319 319 318 316 314 312 311 312 314 315
321 313 309 311 316 319 319 319 316 312 310 307 306 306 305 306 307 308 308 307 307 307 306 305 305 305 305 305 306 306 305 306 306 307 310 312 315 318 320 321 321 321 321 321 320 320 320 320 320 320 319 318 316 317 318 318 316 314 311 310 310 311 311
318 312 309 311 315 320 321 320 316 311 309 308 307 306 305 305 305 306 306 306 306 305 304 304 304 304 304 304 304 305 305 305 305 305 306 311 317 319 320 321 320 319 319 321 321 319 319 319 320 320 319 318 317 316 315 315 315 313 311 309 308 309 309
320 314 311 312 318 322 321 319 316 313 311 308 306 304 304 305 304 305 305 305 305 304 304 304 304 304 305 305 306 307 308 307 307 306 306 309 315 319 320 320 319 317 317 318 318 316 316 317 318 319 319 318 318 317 314 314 314 313 311 309 308 308 308
321 316 314 317 321 322 320 319 317 315 312 309 306 304 304 304 304 305 305 304 305 304 305 305 305 306 307 308 309 309 309 309 309 309 308 308 310 313 315 317 318 317 317 318 317 315 314 314 315 317 318 318 319 317 314 314 315 313 311 309 308 308 308
321 318 319 322 323 321 319 319 319 316 313 310 307 304 304 306 306 307 306 306 306 306 307 307 307 308 308 309 309 309 309 309 309 309 310 309 309 309 310 313 317 318 318 318 317 314 314 313 313 315 316 318 319 316 313 313 315 313 310 309 309 308 309
322 321 322 322 321 320 320 320 319 318 314 311 309 308 307 308 310 309 309 309 309 309 309 308 309 308 309 310 311 311 310 309 310 309 309 309 309 309 309 311 314 316 316 315 314 314 313 313 313 314 315 316 316 314 313 314 315 313 311 310 309 308 310
323 323 322 320 319 320 321 319 318 317 313 310 312 313 310 309 311 310 309 310 311 313 314 312 312 311 309 310 313 315 314 314 313 313 311 310 309 310 310 311 313 313 313 313 313 313 314 314 314 314 315 315 314 313 314 315 315 313 311 310 309 309 311
323 323 322 321 320 320 320 319 318 317 313 309 311 315 312 310 310 308 309 311 313 316 318 316 314 314 312 313 315 317 318 318 317 316 316 314 312 311 311 311 312 312 313 313 313 313 313 314 314 314 315 314 314 314 314 314 315 314 313 311 309 309 311
322 321 322 322 322 321 320 321 320 317 313 309 308 312 312 310 310 308 309 312 313 316 316 314 313 314 315 315 316 317 318 318 317 317 318 317 316 315 315 313 312 311 312 313 313 313 313 313 313 314 314 314 314 315 314 314 315 315 315 314 312 311 311
319 319 321 321 321 320 318 319 319 318 316 311 307 309 311 310 310 310 311 314 316 316 315 314 314 315 316 316 316 317 318 318 317 317 318 318 319 319 318 317 316 313 312 312 312 313 313 313 314 314 314 314 314 315 315 316 316 316 316 315 314 313 312
319 320 321 317 316 315 314 314 314 315 317 313 307 308 310 310 311 311 312 315 317 318 318 318 318 318 317 317 317 318 318 318 318 317 318 319 320 320 320 319 319 317 315 313 313 314 313 313 314 314 314 314 315 316 316 316 317 316 316 316 315 314 313
321 321 320 316 314 314 315 313 311 312 315 313 308 309 309 309 310 311 313 316 318 319 320 320 320 320 319 318 318 319 318 317 318 318 318 319 320 321 321 320 319 319 318 317 317 317 316 316 315 315 315 315 315 316 316 316 317 317 316 317 316 315 314
321 319 318 317 317 317 315 311 310 312 314 311 309 310 311 311 311 311 312 315 318 320 320 319 320 320 320 319 318 319 319 318 317 317 318 318 318 319 319 319 318 318 319 319 319 319 318 318 317 316 315 315 315 315 315 316 316 317 317 317 317 316 316
320 317 317 317 318 318 316 313 312 312 311 311 311 311 313 315 315 313 312 315 319 320 320 319 319 319 319 318 318 319 319 318 318 317 317 317 317 317 317 317 317 318 319 319 319 319 319 319 318 317 316 316 315 315 315 315 316 316 316 316 316 315 315
319 318 317 317 317 319 319 318 317 314 312 313 315 315 315 317 318 317 315 316 319 320 320 320 319 319 319 318 317 318 319 319 318 317 317 317 316 316 317 317 317 318 318 318 319 319 319 319 318 317 317 316 316 316 316 316 316 316 316 315 315 315 315
319 319 319 318 318 320 320 320 319 318 317 317 318 318 318 318 318 318 318 319 320 320 320 320 320 319 319 318 317 317 318 319 319 317 316 316 316 316 317 318 318 318 317 317 318 318 318 318 318 318 316 315 313 312 311 311 311 311 311 311 310 311 313
321 322 322 321 320 320 321 321 321 321 320 320 320 320 319 319 319 319 319 320 320 319 319 320 320 319 318 317 317 317 317 318 318 317 316 315 315 316 318 318 318 317 316 316 317 318 318 317 317 315 312 309 307 305 305 304 304 304 305 306 306 308 311
323 323 323 322 321 320 320 321 322 321 322 321 321 321 320 320 320 319 320 320 320 319 319 320 320 319 318 317 317 316 316 317 316 316 316 315 316 317 318 318 317 315 314 314 315 316 315 313 311 309 307 305 304 303 303 303 304 304 304 304 306 308 310
323 322 321 321 321 321 321 322 322 321 322 322 321 321 321 320 320 320 320 320 319 319 319 319 319 318 318 318 317 316 316 317 316 316 315 315 316 317 317 316 315 313 312 312 311 311 310 309 308 307 306 304 303 302 303 303 303 304 304 304 304 305 307
321 321 321 321 321 322 322 322 321 321 321 321 321 321 321 321 321 321 320 320 319 318 319 319 319 318 318 317 317 317 317 317 316 315 315 315 316 316 316 315 314 313 313 312 310 309 309 308 308 308 305 303 302 302 303 303 303 303 304 304 304 304 304
321 321 320 320 320 320 320 320 320 321 320 320 321 320 320 320 321 321 320 319 319 318 318 318 318 318 317 317 317 317 317 316 316 316 315 315 315 316 315 315 315 314 314 313 311 311 310 308 307 306 303 302 302 302 302 303 304 305 305 305 304 304 304
318 320 319 319 318 317 317 318 318 319 319 319 319 319 319 319 319 319 318 318 317 317 317 317 317 316 316 316 317 317 316 316 316 315 315 315 315 315 315 315 315 315 315 314 313 312 310 306 304 303 301 301 301 301 302 304 305 306 307 307 307 306 306
314 315 315 316 317 317 317 316 316 316 316 316 316 317 316 316 316 316 316 316 316 316 316 316 316 315 315 315 315 315 315 315 314 315 316 316 315 315 315 315 315 315 315 314 312 309 305 303 301 301 301 301 301 301 303 304 306 308 308 308 308 307 307
311 312 312 313 315 316 316 315 314 314 314 314 314 314 314 313 313 313 313 313 315 315 315 314 314 314 313 313 312 312 311 311 312 314 315 315 315 315 314 313 312 312 311 309 306 303 301 301 301 300 300 300 300 301 303 305 308 309 309 308 308 307 306
310 311 311 312 312 313 313 314 314 314 315 314 314 314 314 313 312 312 311 312 313 314 312 311 312 312 312 311 309 306 306 308 312 314 314 313 312 311 310 309 308 305 304 304 302 302 302 302 301 300 300 299 299 300 302 304 306 307 307 306 305 304 303
310 310 310 311 311 311 312 312 312 313 313 312 313 314 314 313 313 313 313 312 313 313 312 310 310 309 309 308 305 302 304 310 313 313 313 312 312 311 309 309 306 304 304 304 303 304 304 302 301 301 300 299 299 299 300 301 303 304 304 303 302 301 301
309 310 310 310 310 311 311 311 311 311 311 311 311 311 312 312 312 312 312 313 312 312 312 312 310 307 305 303 302 301 304 310 313 313 312 312 313 312 310 309 307 306 306 306 306 306 304 301 300 300 299 299 299 298 299 300 300 301 301 301 300 300 300
307 307 307 308 309 309 309 309 310 310 311 311 310 310 310 311 311 311 311 311 312 313 313 312 311 308 304 302 301 301 303 306 309 311 311 312 312 312 311 309 308 308 308 307 307 306 303 300 299 299 298 298 298 298 299 299 300 300 300 299 299 299 299
Wind_Speed
16 16 14 14 15 14 13 12 11 11 9 6 6 10 13 15 14 13 11 10 9 8 8 7 6 5 4 6 8 8 8 8 8 7 8 11 13 13 12 12 10 10 10 9 9 11 15 15 11 11 12 11 9 8 6 4 3 3 2 2 1 1 1
16 18 18 18 18 16 14 14 14 13 11 8 7 9 12 13 13 13 12 10 8 8 7 6 5 6 8 9 10 9 10 11 10 9 9 10 11 12 13 13 13 12 10 8 9 10 13 17 14 13 15 14 12 10 8 6 5 4 3 2 2 1 1
18 20 20 21 20 19 17 16 14 13 12 9 7 10 12 10 12 13 12 10 8 7 5 5 7 9 11 12 11 11 12 14 15 14 14 13 12 11 10 11 12 12 12 11 12 11 12 15 15 16 16 15 15 14 11 8 8 7 5 4 3 3 3
19 21 22 23 21 20 19 17 15 14 12 9 9 12 13 10 11 13 11 9 7 6 7 8 10 12 12 13 13 13 15 16 17 17 17 15 14 13 11 9 9 10 11 11 12 12 13 16 19 20 18 17 17 16 14 12 11 10 8 7 6 5 5
20 20 21 21 20 20 19 18 16 15 13 10 11 15 15 12 12 13 11 8 6 8 10 11 11 13 13 14 15 16 16 16 16 16 16 15 14 14 13 10 9 8 8 9 9 10 11 16 22 23 21 19 18 18 17 17 15 13 12 10 9 8 7
19 18 18 18 17 18 18 17 16 15 14 12 12 16 18 15 13 13 10 8 7 8 10 10 10 12 14 16 16 17 17 16 15 14 14 14 13 12 12 10 9 9 8 8 8 9 13 20 24 24 23 20 19 19 17 16 16 15 13 11 10 9 9
18 16 16 16 17 17 16 15 14 13 13 12 12 15 19 18 15 13 10 8 8 9 10 11 11 12 14 16 17 17 16 16 15 14 14 13 12 11 11 10 11 11 11 10 9 11 18 22 23 24 24 21 18 17 15 13 12 13 13 11 9 8 9
15 15 16 16 16 16 15 14 13 13 12 11 12 14 17 18 15 12 10 9 8 9 11 12 13 13 13 15 17 16 15 14 14 14 14 13 11 10 10 11 13 14 13 13 12 15 19 20 19 21 22 22 19 15 12 10 9 10 11 11 9 7 6
15 15 17 17 17 15 15 14 13 14 13 12 12 13 14 15 15 13 11 10 9 9 11 11 12 13 13 14 16 15 13 12 11 12 12 12 12 12 11 11 13 15 14 14 15 16 18 17 17 17 16 16 16 15 13 10 9 9 8 8 9 8 7
16 16 17 18 17 16 15 13 12 14 14 13 13 14 14 15 15 14 12 11 10 10 12 11 11 12 12 13 13 13 12 11 11 11 11 13 14 14 13 13 13 12 12 13 15 16 16 15 14 14 13 11 9 11 14 14 11 9 7 5 6 8 9
16 16 17 18 18 17 15 13 12 13 14 13 13 15 16 16 16 15 13 12 12 12 14 14 14 15 15 15 15 14 14 14 14 14 13 15 17 17 15 15 14 13 11 12 14 14 13 13 14 15 15 13 8 4 8 12 12 10 8 5 6 7 9
16 16 17 18 18 16 14 13 12 12 12 13 14 16 17 17 17 16 15 15 15 16 17 18 18 18 18 18 17 17 17 16 16 16 15 15 17 17 16 16 15 14 13 13 14 13 12 11 12 16 18 17 14 9 4 6 7 9 8 5 6 7 7
16 17 18 19 17 15 14 13 11 11 11 13 15 17 18 19 19 18 18 18 18 19 19 19 19 19 18 18 17 17 17 16 15 16 16 15 14 15 16 16 16 14 14 14 13 12 10 9 8 11 16 20 20 15 9 4 2 6 8 5 4 4 5
18 18 19 18 15 14 14 12 10 9 10 12 15 18 19 20 20 20 19 19 19 19 19 19 19 19 18 17 16 15 15 14 14 13 14 13 13 13 14 17 17 15 14 13 12 11 10 9 6 6 12 21 23 18 12 6 3 5 8 7 5 3 4
19 19 19 17 13 13 14 11 9 8 9 12 15 17 19 20 20 19 19 19 19 18 18 18 18 17 17 16 16 15 14 13 13 13 13 13 13 13 14 16 17 16 14 14 13 12 10 8 8 8 12 18 21 17 11 7 5 6 8 9 8 6 4
21 20 18 15 13 14 14 11 10 10 9 12 15 15 17 19 19 18 19 19 18 18 17 17 17 15 14 14 15 15 14 12 12 12 13 13 13 14 15 16 17 16 15 14 12 10 9 9 9 12 15 17 17 14 10 6 5 7 8 9 8 6 4
24 22 18 15 15 15 15 13 12 11 10 13 16 15 15 17 17 18 18 17 18 17 16 15 15 14 13 13 13 14 13 11 10 11 11 12 13 14 15 16 16 16 15 14 12 11 11 10 10 12 15 17 17 15 12 8 6 7 8 9 9 7 5
22 19 16 16 17 17 16 14 13 12 11 14 16 16 16 16 17 18 17 16 16 17 16 14 13 13 14 14 14 13 12 10 10 10 10 11 11 12 12 13 15 16 15 14 13 14 13 11 11 12 12 14 14 14 13 11 9 8 8 9 10 9 8
20 19 19 19 18 17 16 14 14 13 13 15 17 18 17 18 18 18 17 16 15 15 14 13 11 11 13 15 15 13 11 10 9 10 11 11 10 10 10 11 13 14 16 15 15 16 15 12 12 13 13 12 12 11 11 11 10 9 8 9 10 10 11
22 22 22 21 20 18 16 15 16 17 16 15 18 19 19 20 19 18 17 16 14 13 12 12 11 10 11 13 15 14 11 10 9 10 12 12 12 11 11 11 10 12 14 15 15 16 17 15 13 13 14 13 12 10 10 10 10 10 10 10 10 11 12
22 22 20 19 19 17 17 19 18 18 18 18 19 21 20 20 19 18 17 16 15 14 13 12 12 12 12 12 13 13 12 11 10 10 13 14 14 14 14 14 12 13 14 15 15 16 16 16 15 14 14 13 12 11 10 10 11 12 11 10 10 10 11
22 21 19 18 17 15 17 19 19 18 19 20 21 21 20 19 18 18 18 17 17 16 15 14 14 14 14 13 13 14 14 13 12 12 13 15 16 16 16 16 16 15 15 15 15 15 14 14 14 14 14 14 13 13 12 11 12 12 12 11 10 10 11
23 21 20 19 19 19 18 18 17 17 19 20 20 21 20 19 18 18 18 19 19 18 17 16 14 14 14 14 14 16 16 15 14 14 14 16 18 18 17 17 17 17 16 16 16 15 14 13 13 12 13 14 14 14 13 13 14 14 13 13 13 14 14
23 23 21 20 20 20 19 18 17 18 19 20 19 20 20 19 18 18 18 18 19 18 17 17 16 15 15 15 15 16 17 17 17 16 16 17 18 19 19 18 17 17 16 16 16 16 15 14 14 13 12 13 14 14 14 14 15 15 15 15 15 15 16
22 22 22 20 21 21 19 19 19 19 19 20 20 20 19 19 19 19 19 19 19 19 18 18 17 17 17 16 16 16 17 18 18 18 18 17 17 18 18 18 17 16 16 16 16 16 16 15 15 13 12 12 12 12 12 12 13 14 14 15 15 15 15
20 21 20 20 22 22 22 21 20 20 20 21 20 20 20 20 20 20 21 21 20 20 20 19 19 18 17 16 16 16 18 18 18 17 15 14 15 16 18 18 17 16 16 16 16 16 15 14 13 12 11 11 10 10 9 9 10 10 11 12 13 13 14
17 18 18 19 21 22 23 23 21 21 21 21 21 20 20 20 21 21 22 22 21 22 21 21 20 19 18 17 16 17 17 17 16 15 13 13 15 17 18 17 16 16 16 16 16 15 14 13 12 12 11 9 9 8 8 8 8 9 9 10 11 12 14
13 14 15 16 18 21 24 25 23 22 22 21 21 20 20 20 21 21 22 22 22 22 22 21 21 20 19 19 18 17 16 16 17 16 15 15 16 17 18 17 16 15 15 14 14 13 13 13 12 11 9 8 8 7 7 7 7 8 8 9 9 10 12
11 12 12 12 14 16 19 19 20 22 22 22 21 20 20 20 21 21 21 22 22 21 21 21 21 20 20 19 17 17 18 19 19 19 17 17 18 18 18 17 15 15 14 13 13 13 12 12 12 10 9 8 8 8 8 8 8 8 8 7 7 7 8
10 10 9 8 7 7 8 9 11 14 17 18 19 19 19 19 20 20 21 21 21 21 21 21 21 20 18 17 17 19 20 20 20 20 19 19 19 18 17 15 15 14 13 12 12 11 10 9 10 10 9 8 9 9 9 10 10 9 8 7 7 7 7
10 9 8 6 5 3 2 3 5 7 9 11 12 13 15 16 17 18 19 19 19 19 19 18 17 16 16 17 19 20 20 20 20 20 20 19 18 17 16 14 13 14 13 12 11 10 9 9 9 9 9 9 10 10 11 11 11 10 9 9 8 9 9
12 11 9 6 5 4 3 2 3 4 5 6 8 9 11 12 13 14 14 15 15 15 14 14 15 16 17 19 20 20 20 20 20 20 20 19 18 17 16 15 14 14 13 12 11 10 9 8 8 8 8 9 10 11 12 12 12 11 10 10 10 11 13
12 11 10 8 6 6 6 5 4 4 4 5 6 7 8 9 9 10 11 12 13 13 13 13 15 17 18 19 20 21 22 23 23 22 22 21 20 19 18 17 16 16 15 13 12 11 10 9 8 8 8 9 10 11 13 13 13 11 11 11 12 13 15
9 9 9 9 8 8 7 7 6 6 6 6 8 9 9 9 9 9 11 12 13 14 14 14 15 17 19 20 21 23 24 25 24 24 23 21 20 19 18 17 17 18 16 15 13 13 12 10 9 8 8 8 9 11 13 14 15 14 13 13 13 15 16
4 5 6 7 8 9 9 8 7 7 7 7 8 10 11 11 12 12 13 14 14 15 15 15 16 18 19 20 21 24 26 26 24 24 23 22 20 18 16 16 17 17 16 15 14 13 11 9 9 8 8 9 10 12 13 15 15 16 15 14 14 15 16
9 10 9 7 6 8 8 7 8 9 7 7 7 8 10 12 13 14 16 17 18 18 18 17 16 16 18 20 22 24 26 27 25 24 23 23 22 20 17 16 17 17 16 15 14 12 10 9 8 8 9 10 11 11 12 13 14 15 15 15 15 16 16
13 13 12 12 11 12 12 12 13 14 14 13 10 9 9 11 12 14 16 18 20 22 23 21 20 19 19 20 21 24 25 26 26 25 23 23 24 23 21 20 20 18 17 17 15 13 10 9 8 8 9 10 12 12 13 13 13 14 15 15 16 16 16
Wind_Direction
173 172 173 170 167 169 164 158 159 160 161 159 153 158 153 144 138 136 143 147 149 161 171 177 184 195 188 146 139 148 155 156 154 159 162 161 172 178 179 190 191 178 180 189 190 178 156 145 143 139 137 138 136 136 139 149 174 185 201 213 212 243 243
170 167 166 165 165 168 167 163 165 166 171 179 169 166 167 155 143 147 154 152 151 160 168 176 177 172 162 146 136 141 148 147 145 150 152 151 165 176 177 182 180 172 173 175 184 189 168 151 146 145 140 134 127 120 119 126 130 133 132 112 80 77 105
168 161 161 164 167 171 173 170 169 172 176 183 180 176 178 163 148 157 164 155 153 166 180 184 167 154 150 144 139 141 141 139 140 143 141 139 144 152 163 177 182 178 176 177 179 182 171 155 149 147 141 132 124 117 113 112 106 103 98 89 82 75 75
171 164 164 167 171 174 177 177 179 184 187 195 192 176 174 166 157 165 169 161 161 165 167 166 159 154 151 146 145 146 143 140 141 141 138 135 134 134 138 153 175 183 185 185 178 176 174 159 148 143 136 128 121 115 110 103 96 91 87 84 81 77 76
177 171 169 170 175 178 182 186 189 193 192 191 182 170 170 170 167 168 171 171 164 147 147 152 156 158 156 151 150 150 149 146 145 145 142 139 137 137 135 138 152 167 177 180 169 172 177 160 147 140 134 128 121 114 109 105 97 89 82 83 85 82 81
181 178 176 177 180 183 187 188 188 188 182 169 162 167 171 174 175 178 180 179 155 132 130 137 147 159 162 159 154 154 155 151 150 151 147 144 142 139 135 132 134 138 144 154 159 164 164 155 146 139 135 132 125 118 115 109 102 95 85 78 81 86 86
183 183 184 186 185 184 184 182 184 184 177 164 158 165 173 179 186 188 186 172 147 131 127 126 131 144 158 163 161 160 159 156 156 155 149 149 149 142 135 130 125 124 127 137 147 156 158 155 150 143 137 132 126 122 120 113 104 101 98 90 85 89 95
189 189 191 191 185 181 179 183 189 188 184 175 163 161 170 181 188 187 181 167 149 138 136 132 127 129 138 151 160 164 162 161 163 161 156 155 153 147 139 132 127 123 122 131 141 153 159 157 153 147 141 136 132 131 132 123 111 107 104 106 107 103 109
196 193 191 189 185 183 183 187 187 185 185 176 165 161 164 173 180 180 176 168 154 140 140 140 134 130 129 134 146 153 150 148 153 159 163 162 153 144 137 133 132 127 124 126 135 148 156 155 153 151 151 145 136 140 153 153 139 127 111 109 121 123 126
196 192 188 187 187 187 186 186 181 177 174 166 160 161 161 165 171 173 171 163 151 138 138 140 135 133 131 129 132 131 125 121 125 136 150 152 147 143 140 138 135 132 133 133 135 144 153 160 163 164 170 170 144 138 154 166 166 148 124 112 132 142 142
193 190 188 188 186 184 184 185 180 169 163 160 158 158 159 163 166 169 167 157 147 139 136 135 132 130 127 126 123 117 111 109 112 120 133 144 147 146 147 146 140 133 137 142 141 145 155 168 179 184 186 187 190 172 146 157 169 162 144 132 136 150 153
196 191 188 188 184 183 187 187 180 167 161 162 160 157 158 159 161 164 162 154 145 140 136 133 130 129 127 125 122 118 114 112 112 115 123 139 151 155 156 154 149 141 141 148 148 148 156 167 180 192 195 194 201 213 186 151 163 168 168 160 137 140 151
197 190 185 185 182 186 190 185 178 170 168 170 165 158 156 156 157 157 154 149 144 139 137 135 133 131 130 128 126 124 123 122 121 121 123 130 142 158 165 164 160 156 154 160 161 160 167 171 174 188 196 199 204 209 209 201 180 173 176 185 172 147 144
191 184 180 181 184 191 191 185 184 179 177 181 172 160 156 157 155 154 150 146 144 141 139 139 137 136 135 133 133 134 134 135 135 134 134 132 132 146 164 168 170 172 173 177 179 182 187 187 183 174 183 194 201 205 210 209 194 178 177 186 198 180 152
183 179 177 178 186 192 188 187 192 190 188 191 180 163 159 161 158 155 152 148 146 146 145 144 145 147 148 146 145 145 147 150 152 152 151 148 143 145 157 167 174 177 181 184 185 188 191 186 180 165 167 186 195 198 204 213 209 195 192 192 192 190 176
183 180 176 179 189 191 188 193 198 194 196 195 185 172 167 168 164 159 158 156 155 154 154 153 154 159 164 161 157 156 159 163 165 166 164 162 159 158 161 167 173 177 180 184 184 183 181 175 169 161 160 173 186 186 185 200 206 196 200 198 194 197 188
181 176 174 179 187 190 194 202 200 193 198 197 189 180 175 173 169 166 166 166 165 163 165 166 166 171 176 177 173 168 168 172 176 176 176 173 170 169 170 174 178 183 187 189 187 181 174 170 170 168 165 169 178 181 175 173 176 180 189 190 191 205 213
173 170 176 182 188 194 197 201 202 200 200 199 193 186 180 177 174 173 174 175 174 174 176 181 182 182 184 187 188 183 179 183 188 190 190 187 183 179 179 184 189 192 196 195 189 182 179 176 176 180 183 180 183 185 181 177 176 177 178 178 186 202 215
179 181 190 193 195 195 192 197 210 217 212 204 199 192 185 183 183 182 182 180 181 184 188 194 195 191 190 191 194 195 192 193 200 205 205 203 204 203 196 196 199 201 201 202 197 190 189 190 186 187 193 194 192 189 186 186 184 182 181 180 186 200 213
189 194 198 200 199 195 199 209 216 221 220 211 202 196 192 192 192 191 191 190 189 194 201 205 204 203 200 196 196 199 201 206 214 217 214 213 217 221 217 213 215 214 207 205 204 200 197 198 196 192 194 199 199 194 192 191 187 183 184 186 191 202 214
192 196 200 203 201 203 215 219 213 214 217 209 202 201 200 199 200 200 199 198 199 203 211 216 220 224 222 212 208 209 213 222 228 226 223 222 224 226 225 226 229 225 216 209 210 209 204 204 204 198 197 202 206 207 205 201 194 190 189 193 197 204 214
193 196 203 208 209 209 212 208 201 203 207 203 201 203 203 203 206 206 205 205 207 210 215 223 233 236 233 231 230 227 228 233 233 231 232 232 231 230 229 230 228 224 221 217 216 215 210 207 207 204 201 204 210 215 215 212 206 202 202 205 210 217 223
204 207 214 219 220 214 206 203 201 200 202 201 201 203 205 206 208 210 210 210 212 216 220 227 235 239 238 242 243 238 239 242 240 240 244 243 239 234 229 229 226 221 221 219 216 216 214 209 209 210 207 205 206 210 214 216 217 216 218 223 230 237 240
216 217 219 225 225 215 207 208 207 201 201 204 203 203 207 209 212 216 217 217 219 224 229 234 239 242 244 249 248 242 241 243 244 249 253 250 244 236 228 224 220 216 217 217 214 214 214 213 214 217 216 211 210 214 218 222 225 229 235 239 243 246 246
215 217 217 219 220 215 213 214 211 204 203 205 207 209 211 214 218 221 223 226 228 231 236 241 244 247 248 250 249 245 241 242 247 254 256 249 238 226 217 213 211 210 213 214 214 216 216 215 217 220 220 216 214 217 220 222 228 233 239 244 246 246 245
213 215 214 213 215 216 217 217 214 210 209 209 213 215 216 220 224 226 228 230 233 237 242 244 246 250 250 249 250 247 243 245 249 249 244 232 216 203 201 203 205 205 207 207 209 212 213 215 217 215 211 207 207 210 215 219 225 230 234 238 241 241 241
207 209 209 209 214 217 217 217 216 215 213 213 216 220 222 224 227 230 233 235 239 244 247 246 248 251 250 252 257 252 243 238 234 225 212 199 190 188 193 199 200 198 196 197 199 201 203 206 207 204 201 204 209 214 218 224 231 237 242 244 245 245 244
193 201 206 207 210 214 217 219 219 220 220 220 222 225 228 231 233 235 238 241 245 248 249 248 249 250 252 258 259 247 231 217 209 203 195 184 180 185 191 194 195 194 192 193 195 198 200 200 200 203 210 218 222 224 226 233 242 249 254 258 257 254 251
177 185 195 200 206 212 217 220 224 227 229 231 233 237 240 241 241 242 244 247 249 250 249 249 250 252 254 254 244 223 209 201 197 197 194 185 182 188 192 192 192 192 194 197 199 199 201 204 207 216 227 233 235 237 241 246 250 253 259 265 268 265 260
157 163 167 169 182 201 211 217 224 229 233 235 237 241 243 243 243 245 248 250 250 249 249 249 249 249 245 232 215 203 200 199 197 198 197 192 191 196 200 201 199 198 199 199 201 206 216 223 227 233 241 247 251 253 255 257 259 264 271 275 278 280 280
135 148 152 147 149 161 174 202 221 228 235 239 238 238 239 239 242 246 247 248 248 247 246 243 238 230 217 206 201 199 202 204 205 205 204 201 200 204 208 209 208 209 210 211 216 228 241 246 244 243 249 257 262 263 265 267 271 277 284 286 285 285 284
115 126 132 138 149 153 150 164 207 229 241 244 241 242 242 239 240 242 240 239 238 236 233 226 216 206 200 199 202 206 209 213 214 213 210 207 205 206 209 212 213 215 219 222 227 233 237 239 241 245 250 257 262 265 266 268 270 272 275 277 277 278 281
117 123 128 132 140 155 168 177 187 203 219 231 234 233 233 234 235 231 230 231 227 219 214 210 207 204 202 205 212 217 220 220 218 216 214 214 215 215 215 217 221 225 226 224 222 220 219 225 232 240 247 252 257 260 263 266 267 267 267 269 272 276 283
134 137 144 147 150 159 171 185 200 208 215 235 250 246 239 242 244 234 228 227 222 216 216 217 218 217 215 217 223 225 223 219 216 216 217 218 221 221 222 224 227 225 222 219 217 217 220 226 233 241 249 253 251 251 254 257 261 265 270 275 279 283 286
204 196 182 171 168 170 170 176 188 194 200 221 245 251 249 252 255 249 241 238 233 229 227 227 228 227 226 225 225 224 220 215 213 216 219 221 223 223 224 226 223 218 214 214 216 219 225 232 237 244 253 257 255 252 252 254 259 265 273 278 281 283 284
271 260 251 239 214 205 211 217 212 210 213 218 227 238 245 250 255 255 250 246 243 240 236 231 229 230 231 228 223 221 220 218 218 219 222 224 225 225 225 223 218 215 216 217 218 223 230 235 238 247 257 262 263 260 258 258 261 265 271 275 278 280 282
278 272 263 259 253 247 250 253 244 237 235 236 238 243 246 247 251 254 252 249 246 243 240 237 235 230 226 226 225 223 224 226 226 225 223 224 225 226 227 225 220 219 220 218 218 225 230 230 235 246 258 264 267 266 265 265 266 266 269 272 275 277 279